Location: Zagreb
(45.8000°N, 16.0000°E)
Time: 14:08:40
(UTC+02:00)

Vanguard 1 - Pass Details

Date: 17 August 2022
Orbit: 649 x 3832 km, 34.2° (Epoch: 25 September)

Event Time Altitude Azimuth Distance (km) Brightness Sun altitude
Rises 05:43:33 0° 254° (WSW) 5,597 - -3.2°
Exits shadow 05:44:32 - 253° (WSW) 5,381 13.1 -3.0°
Reaches altitude 10° 05:46:40 10° 250° (WSW) 4,938 13.0 -2.7°
Maximum altitude 06:01:54 58° 177° (S) 3,665 12.9 -0.2°
Drops below altitude 10° 06:24:19 10° 106° (ESE) 6,932 15.5 3.5°
Sets 06:29:45 0° 103° (ESE) 7,885 15.9 4.4°
